Weather History for Spokane Fairchild, WA

Change the Weather History Date:

Thursday, January 10, 2013

  Actual Average Record
Temperature  
Mean Temperature 26 °F -  
Max Temperature 30 °F 31 °F 48 °F (2006)
Min Temperature 21 °F 21 °F 5 °F (1998)
Degree Days  
Heating Degree Days 40    
Moisture  
Dew Point 26 °F    
Average Humidity 100    
Maximum Humidity 100    
Minimum Humidity 99    
Precipitation  
Precipitation 0.01 in - - ()
Sea Level Pressure  
Sea Level Pressure 29.80 in    
Wind  
Wind Speed 8 mph (West)    
Max Wind Speed 18 mph    
Max Gust Speed -    
Visibility 9 miles    
Events Snow    
Averages and records for this station are not official NWS values.
T = Trace of Precipitation, MM = Missing Value Source: NWS Daily Summary

Daily Weather History Graph

Daily Weather History Graph

Search for Another Location

Airport:

Trip Planner

Search our weather history database for the weather conditions in past years. The results will help you decide how hot, cold, wet, or windy it might be!

Date:

Astronomy

Jan. 10, 2013 Rise Set
Actual Time 7:36 AM PST 4:20 PM PST
Civil Twilight 7:01 AM PST 4:55 PM PST
Nautical Twilight 6:22 AM PST 5:34 PM PST
Astronomical Twilight 5:45 AM PST 6:11 PM PST
Moon 6:20 AM PST (1/10) 3:34 PM PST (1/10)
Length of Visible Light 9h 53m
Length of Day
8h 43m
Waning Crescent, 1% of the Moon is Illuminated
Jan 10
Waning Crescent
Jan 11
New
Jan 18
First Quarter
Jan 26
Full
Feb 3
Last Quarter

Hourly Weather History & Observations

Time (PST) Temp. Windchill Dew Point Humidity Pressure Visibility Wind Dir Wind Speed Gust Speed Precip Events Conditions
12:58 AM 29.5 °F 21.8 °F 29.5 °F 100% 29.79 in 10.0 mi South 8.1 mph - N/A   Scattered Clouds
1:19 AM 28.4 °F 18.5 °F 28.4 °F 100% 29.73 in 10.0 mi South 11.5 mph - N/A   Clear
1:38 AM 28.4 °F 18.0 °F 28.4 °F 100% 29.74 in 10.0 mi South 12.7 mph - N/A   Clear
1:58 AM 28.8 °F 19.0 °F 28.8 °F 100% 29.80 in 10.0 mi South 11.5 mph - 0.00 in   Clear
2:58 AM 28.0 °F 20.0 °F 28.0 °F 100% 29.81 in 10.0 mi SSW 8.1 mph - N/A   Clear
2:59 AM 28.4 °F 19.7 °F 28.4 °F 100% 29.74 in 10.0 mi SSW 9.2 mph - N/A   Clear
3:10 AM 28.4 °F 17.5 °F 28.4 °F 100% 29.74 in 10.0 mi SSW 13.8 mph - N/A   Clear
3:58 AM 27.0 °F 18.0 °F 27.0 °F 100% 29.81 in 10.0 mi SSW 9.2 mph - 0.00 in   Clear
4:58 AM 25.0 °F 17.1 °F 25.0 °F 100% 29.82 in 10.0 mi SSW 6.9 mph - N/A   Partly Cloudy
5:48 AM 24.8 °F 14.6 °F 24.8 °F 100% 29.74 in 10.0 mi SSW 10.4 mph - N/A   Clear
5:58 AM 24.3 °F 17.3 °F 24.3 °F 100% 29.82 in 10.0 mi SSW 5.8 mph - 0.00 in   Clear
6:15 AM 24.8 °F 17.9 °F 24.8 °F 100% 29.76 in 10.0 mi SE 5.8 mph - N/A   Clear
6:58 AM 22.3 °F - 22.3 °F 100% 29.85 in 10.0 mi West 2.3 mph - 0.00 in   Clear
7:10 AM 23.0 °F 13.9 °F 23.0 °F 100% 29.77 in 10.0 mi SSW 8.1 mph - N/A   Clear
7:20 AM 23.0 °F 13.9 °F 23.0 °F 100% 29.77 in 10.0 mi South 8.1 mph - N/A   Clear
7:42 AM 23.0 °F 18.4 °F 23.0 °F 100% 29.77 in 10.0 mi SW 3.5 mph - N/A   Mostly Cloudy
7:55 AM 23.0 °F 18.4 °F 23.0 °F 100% 29.78 in 10.0 mi South 3.5 mph - N/A   Overcast
8:40 AM 21.2 °F 14.9 °F 21.2 °F 100% 29.79 in 10.0 mi South 4.6 mph - N/A   Mostly Cloudy
8:43 AM 21.2 °F 14.9 °F 21.2 °F 100% 29.79 in 10.0 mi SSE 4.6 mph - N/A   Mostly Cloudy
8:49 AM 23.0 °F - 23.0 °F 100% 29.79 in 10.0 mi SE 2.3 mph - N/A   Mostly Cloudy
8:55 AM 23.0 °F 17.0 °F 23.0 °F 100% 29.80 in 10.0 mi South 4.6 mph - N/A   Overcast
9:34 AM 24.8 °F 19.1 °F 24.8 °F 100% 29.79 in 10.0 mi South 4.6 mph - N/A   Overcast
9:50 AM 24.8 °F 19.1 °F 24.8 °F 100% 29.79 in 10.0 mi SW 4.6 mph - N/A   Overcast
9:55 AM 24.8 °F 20.5 °F 24.8 °F 100% 29.79 in 10.0 mi SW 3.5 mph - N/A   Overcast
10:55 AM 25.5 °F - 25.5 °F 100% 29.86 in 10.0 mi WNW 1.2 mph - N/A   Overcast
11:11 AM 24.8 °F - 24.8 °F 100% 29.78 in 10.0 mi SSW 2.3 mph - N/A Snow Light Snow
11:55 AM 27.1 °F 23.2 °F 27.1 °F 100% 29.85 in 10.0 mi WSW 3.5 mph - 0.00 in Snow Light Snow
12:55 PM 27.1 °F 23.2 °F 27.1 °F 100% 29.85 in 10.0 mi SW 3.5 mph - 0.00 in Snow Light Snow
1:12 PM 28.4 °F 23.3 °F 28.4 °F 100% 29.77 in 10.0 mi WNW 4.6 mph - N/A   Overcast
1:13 PM 28.4 °F 22.2 °F 28.4 °F 100% 29.77 in 10.0 mi WNW 5.8 mph - N/A   Overcast
1:55 PM 28.4 °F 21.2 °F 28.4 °F 100% 29.77 in 10.0 mi NW 6.9 mph - N/A   Overcast
2:06 PM 30.2 °F 24.3 °F 30.2 °F 100% 29.77 in 10.0 mi NW 5.8 mph - N/A   Overcast
2:08 PM 30.2 °F 25.4 °F 30.2 °F 100% 29.77 in 10.0 mi WNW 4.6 mph - N/A   Overcast
2:10 PM 30.2 °F 26.7 °F 30.2 °F 100% 29.77 in 10.0 mi NW 3.5 mph - N/A   Overcast
2:27 PM 30.2 °F 26.7 °F 30.2 °F 100% 29.78 in 10.0 mi WNW 3.5 mph - N/A   Overcast
2:47 PM 30.2 °F - 30.2 °F 100% 29.78 in 10.0 mi NW 2.3 mph - N/A   Overcast
2:48 PM 30.2 °F - 30.2 °F 100% 29.78 in 10.0 mi NW 2.3 mph - N/A   Overcast
2:58 PM 30.2 °F 26.7 °F 30.0 °F 99% 29.86 in 10.0 mi NW 3.5 mph - 0.00 in   Overcast
3:38 PM 30.2 °F 25.4 °F 30.2 °F 100% 29.79 in 10.0 mi WSW 4.6 mph - N/A   Overcast
3:43 PM 30.2 °F 26.7 °F 30.2 °F 100% 29.79 in 10.0 mi WSW 3.5 mph - N/A   Overcast
3:58 PM 29.3 °F 24.3 °F 29.3 °F 100% 29.86 in 10.0 mi WSW 4.6 mph - 0.00 in   Overcast
4:03 PM 28.4 °F 22.2 °F 28.4 °F 100% 29.79 in 10.0 mi SW 5.8 mph - N/A   Overcast
4:19 PM 28.4 °F 22.2 °F 28.4 °F 100% 29.79 in 10.0 mi SW 5.8 mph - N/A   Overcast
4:49 PM 28.4 °F 21.2 °F 28.4 °F 100% 29.79 in 10.0 mi WSW 6.9 mph - N/A   Overcast
4:58 PM 28.4 °F 22.2 °F 28.4 °F 100% 29.88 in 10.0 mi WSW 5.8 mph - 0.00 in   Overcast
5:07 PM 28.4 °F 22.2 °F 28.4 °F 100% 29.79 in 10.0 mi West 5.8 mph - N/A   Overcast
5:12 PM 28.4 °F 22.2 °F 28.4 °F 100% 29.79 in 10.0 mi West 5.8 mph - N/A   Overcast
5:47 PM 28.4 °F 21.2 °F 28.4 °F 100% 29.80 in 7.0 mi NW 6.9 mph - N/A Snow Light Snow
5:58 PM 28.0 °F 21.7 °F 28.0 °F 100% 29.89 in 4.0 mi NNW 5.8 mph - 0.00 in Snow Light Snow
6:08 PM 26.6 °F 19.1 °F 26.6 °F 100% 29.80 in 2.0 mi NW 6.9 mph - N/A Snow Light Snow
6:13 PM 26.6 °F 20.0 °F 26.6 °F 100% 29.80 in 2.0 mi NW 5.8 mph - N/A Snow Light Snow
6:38 PM 26.6 °F 19.1 °F 26.6 °F 100% 29.80 in 3.0 mi North 6.9 mph - N/A Snow Light Snow
6:58 PM 26.4 °F 17.3 °F 26.4 °F 100% 29.90 in 4.0 mi North 9.2 mph - 0.00 in Snow Light Snow
7:25 PM 26.6 °F 18.2 °F 26.6 °F 100% 29.80 in 7.0 mi NW 8.1 mph - N/A Snow Light Snow
7:30 PM 26.6 °F 17.5 °F 26.6 °F 100% 29.80 in 5.0 mi NW 9.2 mph - N/A Snow Light Snow
7:55 PM 24.8 °F 14.6 °F 24.8 °F 100% 29.80 in 5.0 mi NW 10.4 mph - N/A Snow Light Snow
7:58 PM 24.8 °F 14.0 °F 24.8 °F 100% 29.80 in 5.0 mi NW 11.5 mph - 0.01 in Snow Light Snow
8:03 PM 24.8 °F 14.6 °F 24.8 °F 100% 29.80 in 6.0 mi NW 10.4 mph - N/A Snow Light Snow
8:13 PM 24.8 °F 15.3 °F 24.8 °F 100% 29.80 in 7.0 mi NW 9.2 mph - N/A Snow Light Snow
8:28 PM 24.8 °F 15.3 °F 24.8 °F 100% 29.80 in 7.0 mi NW 9.2 mph - N/A Snow Light Snow
8:38 PM 24.8 °F 14.0 °F 24.8 °F 100% 29.80 in 8.0 mi NW 11.5 mph - N/A Snow Light Snow
8:58 PM 25.2 °F 12.0 °F 25.2 °F 100% 29.80 in 9.0 mi NW 17.3 mph - 0.00 in Snow Light Snow
9:03 PM 24.8 °F 11.1 °F 24.8 °F 100% 29.80 in 10.0 mi NW 18.4 mph - N/A Snow Light Snow
9:04 PM 24.8 °F 11.5 °F 24.8 °F 100% 29.80 in 10.0 mi NW 17.3 mph - N/A Snow Light Snow
9:09 PM 24.8 °F 12.4 °F 24.8 °F 100% 29.80 in 10.0 mi NW 15.0 mph - N/A Snow Light Snow
9:14 PM 24.8 °F 12.9 °F 24.8 °F 100% 29.80 in 10.0 mi NW 13.8 mph - N/A Snow Light Snow
9:24 PM 24.8 °F 12.4 °F 24.8 °F 100% 29.80 in 10.0 mi NW 15.0 mph - N/A Snow Light Snow
9:29 PM 24.8 °F 12.4 °F 24.8 °F 100% 29.80 in 10.0 mi NW 15.0 mph - N/A Snow Light Snow
9:46 PM 24.8 °F 13.4 °F 24.8 °F 100% 29.81 in 10.0 mi NW 12.7 mph - N/A Snow Light Snow
9:47 PM 24.8 °F 12.9 °F 24.8 °F 100% 29.81 in 10.0 mi NW 13.8 mph - N/A Snow Light Snow
9:55 PM 24.8 °F 13.4 °F 24.8 °F 100% 29.81 in 10.0 mi NW 12.7 mph - N/A Snow Light Snow
10:09 PM 24.8 °F 14.0 °F 24.8 °F 100% 29.81 in 10.0 mi NW 11.5 mph - N/A Snow Light Snow
10:38 PM 24.8 °F 14.0 °F 24.8 °F 100% 29.91 in 7.0 mi NW 11.5 mph - N/A Snow Light Snow
10:39 PM 24.8 °F 14.0 °F 24.8 °F 100% 29.82 in 10.0 mi NW 11.5 mph - N/A Snow Light Snow
10:51 PM 24.8 °F 14.0 °F 24.8 °F 100% 29.82 in 10.0 mi NW 11.5 mph - N/A Snow Light Snow
10:53 PM 24.8 °F 14.0 °F 24.8 °F 100% 29.82 in 10.0 mi NW 11.5 mph - N/A Snow Light Snow
10:55 PM 24.8 °F 14.0 °F 24.8 °F 100% 29.82 in 10.0 mi NW 11.5 mph - N/A Snow Light Snow
11:07 PM 23.0 °F 11.7 °F 23.0 °F 100% 29.82 in 10.0 mi NW 11.5 mph - N/A Snow Light Snow
11:09 PM 23.0 °F 12.4 °F 23.0 °F 100% 29.82 in 10.0 mi NW 10.4 mph - N/A Snow Light Snow
11:15 PM 23.0 °F 12.4 °F 23.0 °F 100% 29.82 in 10.0 mi NW 10.4 mph - N/A Snow Light Snow
11:32 PM 23.0 °F 12.4 °F 23.0 °F 100% 29.83 in 10.0 mi NW 10.4 mph - N/A Snow Light Snow
11:39 PM 23.0 °F 12.4 °F 23.0 °F 100% 29.83 in 10.0 mi NW 10.4 mph - N/A Snow Light Snow
11:50 PM 23.0 °F 11.1 °F 23.0 °F 100% 29.83 in 10.0 mi NW 12.7 mph - N/A Snow Light Snow
11:55 PM 23.0 °F 11.1 °F 23.0 °F 100% 29.83 in 10.0 mi NW 12.7 mph - N/A Snow Light Snow